This is the latest recevied weather packets stored in our database for station/object W9ESR. If no packets are shown the sender has not sent any weather packets the latest 1 day(s).
| Time | Temp. | Humidity | Pressure | Rain* | Wind** | Luminosity | Snow |
|---|---|---|---|---|---|---|---|
| 1778095565 | 14.44° C | 31% | - | 0 mm | - | - | - |
| 1778094048 | 13.33° C | 32% | - | 0 mm | - | - | - |
| 1778093745 | 13.89° C | 33% | - | 0 mm | - | - | - |
| 1778093139 | 13.33° C | 33% | - | 0 mm | - | - | - |
| 1778092836 | 13.33° C | 32% | - | 0 mm | - | - | - |
| 1778090714 | 12.78° C | 32% | - | 0 mm | - | - | - |
| 1778090411 | 13.89° C | 32% | - | 0 mm | - | - | - |
| 1778088896 | 13.33° C | 34% | - | 0 mm | - | - | - |
| 1778087986 | 12.22° C | 34% | - | 0 mm | - | - | - |
| 1778087078 | 11.67° C | 35% | - | 0 mm | - | - | - |
| 1778085566 | 11.67° C | 34% | - | 0 mm | - | - | - |
| 1778084659 | 10.56° C | 36% | - | 0 mm | - | - | - |
| 1778084356 | 11.67° C | 35% | - | 0 mm | - | - | - |
| 1778083751 | 11.11° C | 36% | - | 0 mm | - | - | - |
| 1778083448 | 11.67° C | 35% | - | 0 mm | - | - | - |
| 1778081417 | 11.11° C | 38% | - | 0 mm | - | - | - |
| 1778080812 | 10° C | 39% | - | 0 mm | - | - | - |
| 1778080509 | 10° C | 40% | - | 0 mm | - | - | - |
| 1778078690 | 9.44° C | 41% | - | 0 mm | - | - | - |
| 1778077481 | 9.44° C | 43% | - | 0 mm | - | - | - |
| 1778076575 | 8.89° C | 44% | - | 0 mm | - | - | - |
| 1778075968 | 8.89° C | 43% | - | 0 mm | - | - | - |
| 1778074755 | 7.78° C | 50% | - | 0 mm | - | - | - |
| 1778073239 | 6.67° C | 52% | - | 0 mm | - | - | - |
| 1778072331 | 6.67° C | 55% | - | 0 mm | - | - | - |
* Rain latest hour (hover to see other rain measurements)
** Current wind speed in m/s (hover to see current wind gust speed)